Location: Great Malvern
(52.1167°N, 2.3167°W)
Time: 11:41:05
(UTC+00:00)

Cosmos 2263 Rocket - Pass Details

Date: 18 September 2020
Orbit: 822 x 850 km, 71.0° (Epoch: 30 October)

Event Time Altitude Azimuth Distance (km) Brightness Sun altitude
Rises 19:31:13 0° 212° (SSW) 3,347 5.5 -12.1°
Reaches altitude 10° 19:33:38 10° 213° (SSW) 2,420 4.8 -12.5°
Maximum altitude 19:39:11 81° 302° (WNW) 844 2.3 -13.3°
Drops below altitude 10° 19:44:49 10° 30° (NNE) 2,450 4.5 -14.1°
Sets 19:47:16 0° 31° (NNE) 3,391 5.2 -14.4°
